Location: Cuiabá
(15.6014°S, 56.0979°W)
Time: 17:00:20
(UTC-04:00)

Hubble Space Telescope - Pass Details

Date: 01 December 2022
Orbit: 529 x 532 km, 28.5° (Epoch: 04 February)

Event Time Altitude Azimuth Distance (km) Brightness Sun altitude
Rises 20:53:10 0° 251° (WSW) 2,676 5.2 -35.7°
Reaches altitude 10° 20:56:10 10° 228° (SW) 1,787 4.2 -36.2°
Enters shadow 20:56:42 12° 222° (SW) 1,670 4.0 -36.3°
